sat.trackr.live / text

‹ back to catalog

STARLINK-5756

NORAD 55598 · 2023-020AF

PAYLOAD ACTIVE UNKNOWN

§ Identity

Operator
Country
US
Launch date
2023-02-12
Launch site
AFETR
Launch vehicle
Mass (kg)
RCS (m²)

Purposes: comms

External: N2YO · Heavens-Above · Gunter

§ Orbital elements

Epoch: 2026-05-25T02:25:17.150016Z

Period
94.27 min
Inclination
43.0040°
Eccentricity
0.0002520
Mean motion
15.27573606 rev/d
Perigee alt
481.3 km
Apogee alt
484.8 km
Semi-major
6,861.2 km
B*
-1.8923e-5
RAAN
282.8358°
Arg perigee
286.7431°
Mean anomaly
73.3144°
Rev number
18,072

§ Raw data

STARLINK-57561 55598U 23020AF  26145.10089294 -.00000783  00000+0 -18923-4 0  99962 55598  43.0040 282.8358 0002520 286.7431  73.3144 15.27573606180723

JSON: /api/v1/satellites/55598 · /tle

For live sub-satellite position, see the globe view (requires WebGL).

§ Visibility from observer

Set your observer location to see the next 7 days of passes ≥ 10°. The values pass through the URL so the page stays shareable.

No JS? Fill the form by hand. The geolocation button needs JavaScript.